Regional Weather Roundup
Issued by NWS

Home | Current Version | Previous Version | Graphics & Text | Print | Product List | Glossary On
Versions: 1 2 3 4 5 6 7 8 9 10 11 12 13 14 15 16 17 18 19 20 21 22 23 24 25 26 27 28 29 30 31 32 33 34 35 36 37 38 39 40 41 42 43 44 45 46 47
000
ASUS45 KCYS 030010
RWRWY

WYOMING REGIONAL WEATHER ROUNDUP
NATIONAL WEATHER SERVICE CHEYENNE WY
500 PM MST MON MAR 02 2015

NOTE:  "FAIR" INDICATES FEW OR NO CLOUDS BELOW 12,000 FEET
WITH NO SIGNIFICANT WEATHER AND/OR OBSTRUCTIONS TO VISIBILITY.

WYZ001-030100-
YELLOWSTONE NATIONAL PARK

CITY           SKY/WX    TMP DP  RH WIND       PRES   REMARKS
LK YELLOWSTONE   N/A     27   9  46 CALM      29.63F
6HR MIN TEMP:  13; 6HR MAX TEMP:  28;

W YELLOWSTONE  NOT AVBL

$$
WYZ002>013-054>058-071-098>099-030100-
NORTHERN WYOMING

CITY           SKY/WX    TMP DP  RH WIND       PRES   REMARKS
JACKSON        CLOUDY    27  18  69 CALM      29.62F
CODY           CLOUDY    36  18  48 NW7       29.68R WCI  30
GREYBULL       MOCLDY    40  13  33 W6        29.65F
6HR MIN TEMP:  31; 6HR MAX TEMP:  42;

WORLAND        CLOUDY    36  18  48 CALM      29.65F
6HR MIN TEMP:  27; 6HR MAX TEMP:  37;

SHERIDAN       FAIR      37  21  52 NW12      29.71R WCI  29
6HR MIN TEMP:  29; 6HR MAX TEMP:  43;

BUFFALO        MOCLDY    36  10  34 NW9       29.68F WCI  29
6HR MIN TEMP:  35; 6HR MAX TEMP:  41;

GILLETTE       FAIR      38  14  37 NE8       29.67F WCI  32
6HR MIN TEMP:  36; 6HR MAX TEMP:  44;

HULETT         FAIR      37  10  32 N6        29.70F WCI  33
NEWCASTLE      FAIR      37  19  48 CALM      29.67F

$$
WYZ014>020-022>026-101>103-030100-
CENTRAL WYOMING

CITY           SKY/WX    TMP DP  RH WIND       PRES   REMARKS
BIG PINEY      CLOUDY    30  20  66 CALM      29.62F
6HR MIN TEMP:  29; 6HR MAX TEMP:  32; 6HR PCP: TRACE;

PINEDALE       LGT SNOW  28  21  74 CALM      29.62F
DUBOIS         CLOUDY    27  18  69 SE5       29.59S WCI  21
LANDER         CLOUDY    25  16  68 E6        29.63F WCI  18
6HR MIN TEMP:  19; 6HR MAX TEMP:  28;

RIVERTON       CLOUDY    24  15  68 CALM      29.65F
6HR MIN TEMP:  20; 6HR MAX TEMP:  25;

CASPER         SNOW      32  31  96 E7        29.62F VSB 1/4 WCI  26
6HR MIN TEMP:  32; 6HR MAX TEMP:  41; 6HR PCP:  0.17;

DOUGLAS        SNOW      32  31  96 E5        29.64F VSB 1/2 WCI  27
6HR MIN TEMP:  32; 6HR MAX TEMP:  38; 6HR PCP:  0.04;


$$
WYZ021-027>030-104>119-030100-
SOUTHERN WYOMING

CITY           SKY/WX    TMP DP  RH WIND       PRES   REMARKS
EVANSTON       FAIR      34  28  79 S8        29.56F WCI  27
6HR MIN TEMP:  27; 6HR MAX TEMP:  35; 6HR PCP:  0.02;

KEMMERER       CLOUDY    30  27  86 NE5       29.57F WCI  25
FORT BRIDGER   FAIR      31  27  86 E6        29.60F WCI  25
ROCK SPRINGS   CLOUDY    29  28  96 W7        29.59F FOG     WCI  22
6HR MIN TEMP:  27; 6HR MAX TEMP:  31; 6HR PCP:  0.02;

DIXON          RAIN      41  36  80 W21G35    29.62R
RAWLINS        LGT SNOW  32  29  88 W3        29.57F FOG
6HR MIN TEMP:  27; 6HR MAX TEMP:  32; 6HR PCP:  0.18;

SARATOGA       CLOUDY    37  32  81 S7        29.56F WCI  32
LARAMIE        FAIR      41  29  62 SW15      29.56F
6HR MIN TEMP:  28; 6HR MAX TEMP:  44;

CHEYENNE       FAIR      36  23  59 S9        29.61F WCI  29
6HR MIN TEMP:  25; 6HR MAX TEMP:  38;

TORRINGTON     FAIR      46  25  43 SE13      29.62F
6HR MIN TEMP:  38; 6HR MAX TEMP:  48;

PINE BLUFFS    FAIR      37  27  65 S8        29.63F WCI  31

$$



USA.gov is the U.S. government's official web portal to all federal, state and local government web resources and services.